Regional Weather Roundup
Issued by NWS Newport/Morehead, NC

Current Version | Previous Version | Graphics & Text | Print | Product List | Glossary Off
Versions: 1 2 3 4 5 6 7 8 9 10 11 12 13 14 15 16 17 18 19 20 21 22 23 24 25 26 27 28 29 30 31 32 33 34 35 36 37 38 39 40 41 42 43 44 45 46 47 48 49 50

000
ASUS42 KMHX 290925
RWRMHX
WEATHER ROUNDUP FOR EASTERN NORTH CAROLINA
NATIONAL WEATHER SERVICE NEWPORT/MOREHEAD CITY NC
500 AM EDT WED JUL 29 2015

NOTE: "FAIR" INDICATES FEW OR NO CLOUDS BELOW 12,000 FEET
WITH NO SIGNIFICANT WEATHER AND/OR OBSTRUCTIONS TO VISIBILITY

NCZ015>017-031-032-045>047-102-103-291000-
NORTH COAST

CITY           SKY/WX    TMP DP  RH WIND       PRES   REMARKS
EDENTON        CLEAR     74  69  86 CALM      29.99S
ELIZABETH CITY CLEAR     72  69  90 SW3       29.99S
KITTY HAWK     SUNNY     74  69  83 CALM      29.98S
MANTEO         CLEAR     72  70  93 CALM      29.99S

$$

NCZ045>047-081-094-103-104-291000-
CENTRAL COAST

CITY           SKY/WX    TMP DP  RH WIND       PRES   REMARKS
FRISCO         CLEAR     79  70  74 E8        29.98S
SWANQUARTER      N/A     73 N/A N/A NE1       29.94S

$$

NCZ095-097-098-100-101-291000-
SOUTHERN COAST

CITY           SKY/WX    TMP DP  RH WIND       PRES   REMARKS
BEAUFORT       PTCLDY    79  72  79 E6        29.96F
CEDAR ISLAND     N/A     79 N/A N/A E12       30.00F
JACKSONVILLE   PTCLDY    77  71  82 E6        29.96F
PINEY ISLAND   SUNNY    N/A N/A N/A E9        29.97S
WILMINGTON     CLEAR     73  70  90 CALM      29.96F


$$

NCZ011>013-027>030-043-044-078>080-089-090>093-098-291000-
COASTAL PLAIN

CITY           SKY/WX    TMP DP  RH WIND       PRES   REMARKS
AHOSKIE        PTCLDY    68  67  96 CALM      30.00R
CLINTON        CLEAR     72  71  98 CALM      29.99R
ELIZABETHTOWN  CLEAR     72  72 100 CALM      29.97S
GOLDSBORO      CLEAR     73  71  92 E1        29.97S
GREENVILLE     PTCLDY    72  72 100 CALM      30.01R
HAVELOCK       PTCLDY    74  70  87 NE3       29.98F
KENANSVILLE    CLEAR     70  69  96 CALM      29.99S
KINSTON        CLEAR     71  70  95 CALM      29.99S
NEW BERN       PTCLDY    73  71  93 CALM      29.98F FOG
RICHLANDS      CLEAR     70  64  83 CALM      29.98R
ROCKY MOUNT    PTCLDY    72  70  93 CALM      30.00R
WASHINGTON     PTCLDY    71  69  93 CALM      29.99S
WHITEVILLE     CLEAR     71  69  95 CALM      29.96S

$$

AMZ130-135-150-152-154-156-158-170-250-252-270-ANZ085-086-088-633-658-670-291000-
MARINE OBSERVATIONS

STATION/POSITION TIME  TEMP    WIND        PRES    WAVE   SWELL
                       AIR SEA DIR/SP/G            HT/PER HT/PER
                 (UTC) (F)     (DEG/KT/KT) (MB)    (FT/S) (FT/S)
CHESAPEAKE LIGHT 0900   79     180/ 11/ 12 1015.8
64 E VA BEACH    0850   80 80  180/  4/  6 1015.1    3/ 6   2/ 6
DUCK             0900   77 71  160/  6/  6 1014.5
2 E DUCK         0811      79                N/A     2/11
OREGON INLET     0900   77 82  140/  3/  5 1015.2
13E OREGON INLT  0900      81                N/A     2/11   2/11
HATTERAS CG      0900   80 83  100/  6/  9 1014.9
DIAMOND BUOY     NOT AVBL
CAPE LOOKOUT     0900   80      80/ 13/ 15 1014.3
BEAUFORT LAB     0900   79 81   90/  5/  7 1013.8
30 SE NEW RVR IN NOT AVBL
27 SE WRIGHTSVLE 0900   78 82   90/ 14/ 17   N/A
5 SE WRIGHTSVLE  0808   81 81   90/ 12/ 16 1014.4
225 S CAPE HAT   0850   83 81  230/ 17/ 19 1013.0    5/ 7   2/10
41 SE CHARLESTON 0850   83 84   60/ 10/ 12 1012.6    3/ 6   2/ 6

$$


USA.gov is the U.S. government's official web portal to all federal, state and local government web resources and services.